ENZ73BV EGTE-GCRR

Flight info

Callsign ENZ73BV
Flight time N/A
Altitude 37000
Route DCT DAWLY N864 ABBEW N90 SKESO/N0408F310 DCT EBOMO DCT BALDA DCT ABUPI DCT MORAS DCT NOKSO DCT TAKAV DCT VEDOD UN857 TERTO TERTO5Q
Aircraft LJ35/M-V/N

Departure

Time 2026-04-20 20:14
Airport Exeter International Airport (EGTE)

Arrival

Time N/A
Airport César Manrique-Lanzarote Airport (GCRR)
Time Latitude Longitude Altitude Speed Heading
2026-04-20 20:04 50.73158 -3.41734 106 ft 0 kts 131°
2026-04-20 20:09 50.73157 -3.41720 106 ft 6 kts 64°
2026-04-20 20:09 50.73170 -3.41715 106 ft 7 kts 327°
2026-04-20 20:09 50.73158 -3.41832 104 ft 16 kts 244°
2026-04-20 20:09 50.73103 -3.41980 104 ft 11 kts 245°
2026-04-20 20:10 50.73085 -3.42098 103 ft 13 kts 260°
2026-04-20 20:10 50.73066 -3.42252 104 ft 16 kts 268°
2026-04-20 20:10 50.73069 -3.42456 103 ft 20 kts 270°
2026-04-20 20:10 50.73076 -3.42583 104 ft 5 kts 279°
2026-04-20 20:11 50.73088 -3.42659 105 ft 9 kts 286°
2026-04-20 20:11 50.73118 -3.42745 105 ft 10 kts 310°
2026-04-20 20:11 50.73123 -3.42753 105 ft 0 kts 317°
2026-04-20 20:12 50.73169 -3.42779 105 ft 15 kts 353°
2026-04-20 20:12 50.73214 -3.42770 105 ft 0 kts 23°
2026-04-20 20:13 50.73227 -3.42757 105 ft 0 kts 38°
2026-04-20 20:13 50.73247 -3.42586 107 ft 57 kts 77°
2026-04-20 20:13 50.73426 -3.41380 137 ft 165 kts 76°
2026-04-20 20:13 50.73744 -3.39254 700 ft 227 kts 84°
2026-04-20 20:14 50.73423 -3.36949 2447 ft 197 kts 124°
2026-04-20 20:14 50.72359 -3.35892 3960 ft 191 kts 159°
2026-04-20 20:14 50.70855 -3.35896 3942 ft 248 kts 189°
2026-04-20 20:14 50.69232 -3.37319 4109 ft 283 kts 221°
2026-04-20 20:15 50.67853 -3.39607 4946 ft 285 kts 224°
2026-04-20 20:15 50.66418 -3.41687 5730 ft 284 kts 216°
2026-04-20 20:15 50.64771 -3.43466 6547 ft 283 kts 208°
2026-04-20 20:15 50.63019 -3.44763 7293 ft 281 kts 198°
2026-04-20 20:16 50.61119 -3.45438 8212 ft 279 kts 187°
2026-04-20 20:16 50.59102 -3.45886 9304 ft 306 kts 189°
2026-04-20 20:16 50.56946 -3.46466 10537 ft 325 kts 189°
2026-04-20 20:16 50.54630 -3.46901 11812 ft 341 kts 187°
2026-04-20 20:17 50.52212 -3.47025 13195 ft 351 kts 179°
2026-04-20 20:17 50.49789 -3.46602 14655 ft 355 kts 171°
2026-04-20 20:17 50.47397 -3.45638 16135 ft 357 kts 163°
2026-04-20 20:17 50.45105 -3.44157 17681 ft 356 kts 156°
2026-04-20 20:18 50.42966 -3.42185 19194 ft 353 kts 148°
2026-04-20 20:18 50.41066 -3.39812 20621 ft 349 kts 140°
2026-04-20 20:18 50.39362 -3.37126 22144 ft 340 kts 136°
2026-04-20 20:18 50.37781 -3.34486 23719 ft 325 kts 137°
2026-04-20 20:19 50.36252 -3.31984 24908 ft 318 kts 138°
2026-04-20 20:19 50.34663 -3.29506 25591 ft 324 kts 140°
2026-04-20 20:19 50.33021 -3.27088 26295 ft 329 kts 142°
2026-04-20 20:19 50.31297 -3.24689 27042 ft 333 kts 144°
2026-04-20 20:20 50.29498 -3.22337 27818 ft 335 kts 146°
2026-04-20 20:20 50.27667 -3.20097 28603 ft 335 kts 148°
2026-04-20 20:20 50.25797 -3.17966 29407 ft 334 kts 150°
2026-04-20 20:20 50.23860 -3.15923 30248 ft 331 kts 153°
2026-04-20 20:21 50.21927 -3.14049 30956 ft 327 kts 155°
2026-04-20 20:21 50.19981 -3.12326 31675 ft 321 kts 158°
2026-04-20 20:21 50.18008 -3.10749 32411 ft 313 kts 161°
2026-04-20 20:21 50.16059 -3.09358 33134 ft 306 kts 163°
2026-04-20 20:22 50.14713 -3.08494 33217 ft 318 kts 165°
2026-04-20 20:22 50.11813 -3.06918 33231 ft 342 kts 169°
2026-04-20 20:22 50.09484 -3.05903 33238 ft 359 kts 172°
2026-04-20 20:22 50.06990 -3.05069 33242 ft 375 kts 176°
2026-04-20 20:23 50.04357 -3.04474 33244 ft 391 kts 180°
2026-04-20 20:23 50.01585 -3.03766 33240 ft 413 kts 171°
2026-04-20 20:23 49.98775 -3.02544 33243 ft 430 kts 168°
2026-04-20 20:23 49.95859 -3.01307 33243 ft 442 kts 171°
2026-04-20 20:24 49.92806 -3.00577 33421 ft 440 kts 183°
2026-04-20 20:24 49.89808 -3.00844 34208 ft 424 kts 195°
2026-04-20 20:24 49.86980 -3.01859 34888 ft 414 kts 200°
2026-04-20 20:24 49.84201 -3.02987 35578 ft 407 kts 200°
2026-04-20 20:25 49.81506 -3.04125 36259 ft 397 kts 205°
2026-04-20 20:25 49.79007 -3.05746 36966 ft 387 kts 209°
2026-04-20 20:25 49.76528 -3.07375 37692 ft 379 kts 208°
2026-04-20 20:25 49.74124 -3.08946 38436 ft 371 kts 208°
2026-04-20 20:26 49.71789 -3.10504 39119 ft 362 kts 208°
2026-04-20 20:26 49.69514 -3.12025 39711 ft 353 kts 208°
2026-04-20 20:26 49.67295 -3.13493 40313 ft 343 kts 208°
2026-04-20 20:26 49.65138 -3.14913 40930 ft 332 kts 208°
2026-04-20 20:27 49.63023 -3.16313 41429 ft 325 kts 208°
2026-04-20 20:27 49.60963 -3.17680 41869 ft 322 kts 208°
2026-04-20 20:27 49.58924 -3.19029 42317 ft 320 kts 208°
2026-04-20 20:27 49.56852 -3.20394 42683 ft 322 kts 207°
2026-04-20 20:28 49.55472 -3.21302 42932 ft 322 kts 207°
2026-04-20 20:28 49.52739 -3.23100 43436 ft 322 kts 207°
2026-04-20 20:28 49.50685 -3.24451 43829 ft 322 kts 207°
2026-04-20 20:28 49.48610 -3.25813 44236 ft 321 kts 207°
2026-04-20 20:29 49.46572 -3.27150 44635 ft 319 kts 207°
2026-04-20 20:29 49.44545 -3.28479 44955 ft 320 kts 208°
2026-04-20 20:29 49.42481 -3.29834 45198 ft 321 kts 207°
2026-04-20 20:29 49.41107 -3.30733 45370 ft 322 kts 207°
2026-04-20 20:30 49.38354 -3.32533 45704 ft 323 kts 207°
2026-04-20 20:30 49.36289 -3.33881 45954 ft 323 kts 207°
2026-04-20 20:30 49.34233 -3.35223 46205 ft 323 kts 207°
2026-04-20 20:30 49.32858 -3.36121 46378 ft 323 kts 207°
2026-04-20 20:31 49.30787 -3.37469 46634 ft 323 kts 207°
2026-04-20 20:31 49.28041 -3.39256 46964 ft 322 kts 207°
2026-04-20 20:31 49.26669 -3.40148 47124 ft 321 kts 207°
2026-04-20 20:31 49.24609 -3.41488 47301 ft 322 kts 207°
2026-04-20 20:32 49.22517 -3.42848 47477 ft 323 kts 207°
2026-04-20 20:32 49.20446 -3.44191 47653 ft 324 kts 207°
2026-04-20 20:32 49.18375 -3.45533 47838 ft 324 kts 207°
2026-04-20 20:32 49.16318 -3.46865 48007 ft 324 kts 207°
2026-04-20 20:33 49.14222 -3.48220 48192 ft 324 kts 207°
2026-04-20 20:33 49.12142 -3.49564 48367 ft 324 kts 207°
2026-04-20 20:33 49.10075 -3.50900 48545 ft 323 kts 207°
2026-04-20 20:33 49.08019 -3.52226 48719 ft 323 kts 207°
2026-04-20 20:34 49.05936 -3.53568 48890 ft 322 kts 207°
2026-04-20 20:34 49.03889 -3.54885 49058 ft 321 kts 207°
2026-04-20 20:34 49.01827 -3.56213 49172 ft 321 kts 207°
2026-04-20 20:34 48.99767 -3.57539 49291 ft 321 kts 207°
2026-04-20 20:35 48.97718 -3.58855 49414 ft 321 kts 207°
2026-04-20 20:35 48.95638 -3.60188 49540 ft 321 kts 207°
2026-04-20 20:35 48.93583 -3.61505 49662 ft 321 kts 207°
2026-04-20 20:35 48.91527 -3.62822 49777 ft 320 kts 207°
2026-04-20 20:36 48.89488 -3.64127 49894 ft 319 kts 207°
2026-04-20 20:36 48.87445 -3.65433 50025 ft 318 kts 207°
2026-04-20 20:36 48.85408 -3.66735 50134 ft 317 kts 206°
2026-04-20 20:36 48.83372 -3.68036 50152 ft 319 kts 206°
2026-04-20 20:37 48.79228 -3.70679 50153 ft 325 kts 206°
2026-04-20 20:37 48.75019 -3.73356 50152 ft 332 kts 206°
2026-04-20 20:38 48.70731 -3.76080 50147 ft 339 kts 206°
2026-04-20 20:38 48.66318 -3.78878 50157 ft 347 kts 206°
2026-04-20 20:39 48.61814 -3.81727 50152 ft 356 kts 206°
2026-04-20 20:39 48.57148 -3.84673 50148 ft 366 kts 206°
2026-04-20 20:40 48.52388 -3.87672 50157 ft 376 kts 205°
2026-04-20 20:40 48.47520 -3.90732 50152 ft 385 kts 205°
2026-04-20 20:41 48.42496 -3.93886 50147 ft 395 kts 205°
2026-04-20 20:41 48.37357 -3.97102 50147 ft 403 kts 205°
2026-04-20 20:42 48.32130 -4.00369 50134 ft 412 kts 205°
2026-04-20 20:42 48.26779 -4.03704 50130 ft 420 kts 205°
2026-04-20 20:43 48.21337 -4.07089 50108 ft 427 kts 205°
2026-04-20 20:43 48.15830 -4.10503 50118 ft 429 kts 205°
2026-04-20 20:44 48.10289 -4.13937 50118 ft 431 kts 205°
2026-04-20 20:44 48.04735 -4.17364 50125 ft 434 kts 205°
2026-04-20 20:45 47.99154 -4.20805 50130 ft 435 kts 205°
2026-04-20 20:45 47.93519 -4.24267 50135 ft 437 kts 205°
2026-04-20 20:46 47.87893 -4.27718 50138 ft 439 kts 205°
2026-04-20 20:46 47.82247 -4.31143 50124 ft 441 kts 202°
2026-04-20 20:47 47.76310 -4.33613 50115 ft 443 kts 198°
2026-04-20 20:47 47.70354 -4.36085 50103 ft 444 kts 198°
2026-04-20 20:48 47.64365 -4.38510 50097 ft 445 kts 198°
2026-04-20 20:48 47.58379 -4.40959 50094 ft 446 kts 198°
2026-04-20 20:49 47.52414 -4.43376 50091 ft 447 kts 198°
2026-04-20 20:49 47.46380 -4.45825 50088 ft 447 kts 198°
2026-04-20 20:50 47.40392 -4.48245 50091 ft 448 kts 198°
2026-04-20 20:50 47.34380 -4.50670 50082 ft 448 kts 198°
2026-04-20 20:51 47.28364 -4.53093 50080 ft 448 kts 198°
2026-04-20 20:51 47.22365 -4.55500 50077 ft 448 kts 198°
2026-04-20 20:52 47.16344 -4.57913 50080 ft 448 kts 198°
2026-04-20 20:52 47.10337 -4.60313 50076 ft 448 kts 198°
2026-04-20 20:53 47.04327 -4.62710 50073 ft 448 kts 198°
2026-04-20 20:53 46.98306 -4.65104 50069 ft 448 kts 198°
2026-04-20 20:54 46.92285 -4.67494 50069 ft 448 kts 198°
2026-04-20 20:54 46.86296 -4.69865 50059 ft 447 kts 198°
2026-04-20 20:55 46.80291 -4.72238 50054 ft 447 kts 198°
2026-04-20 20:55 46.74281 -4.74606 50049 ft 447 kts 197°
2026-04-20 20:56 46.68255 -4.76976 50043 ft 447 kts 197°
2026-04-20 20:56 46.62241 -4.79335 50040 ft 447 kts 197°
2026-04-20 20:57 46.56251 -4.81679 50037 ft 446 kts 197°
2026-04-20 20:57 46.50280 -4.84010 50037 ft 446 kts 197°
2026-04-20 20:58 46.44268 -4.86353 50035 ft 445 kts 197°
2026-04-20 20:58 46.38305 -4.88671 50032 ft 445 kts 197°
2026-04-20 20:59 46.32321 -4.90992 50028 ft 444 kts 197°
2026-04-20 20:59 46.26360 -4.93298 50028 ft 444 kts 197°
2026-04-20 21:00 46.20401 -4.95599 50023 ft 444 kts 197°
2026-04-20 21:00 46.14446 -4.97893 50028 ft 443 kts 197°
2026-04-20 21:01 46.08490 -5.00182 50023 ft 443 kts 197°
2026-04-20 21:01 46.02528 -5.02468 50022 ft 443 kts 197°
2026-04-20 21:02 45.96554 -5.04754 50024 ft 443 kts 197°
2026-04-20 21:02 45.90625 -5.07018 50022 ft 442 kts 197°
2026-04-20 21:03 45.84643 -5.09297 50019 ft 442 kts 197°
2026-04-20 21:03 45.78711 -5.11552 50038 ft 443 kts 197°
2026-04-20 21:04 45.72746 -5.13814 50015 ft 443 kts 197°
2026-04-20 21:04 45.66799 -5.16065 50012 ft 443 kts 197°
2026-04-20 21:05 45.60828 -5.18319 50009 ft 443 kts 197°
2026-04-20 21:05 45.54901 -5.20552 50008 ft 443 kts 197°
2026-04-20 21:06 45.48924 -5.22799 50001 ft 443 kts 197°
2026-04-20 21:06 45.42979 -5.25029 50004 ft 443 kts 197°
2026-04-20 21:07 45.37009 -5.27264 50012 ft 443 kts 197°
2026-04-20 21:07 45.31045 -5.29491 50002 ft 443 kts 197°
2026-04-20 21:08 45.25097 -5.31708 50006 ft 442 kts 197°
2026-04-20 21:08 45.19153 -5.33918 50006 ft 442 kts 197°
2026-04-20 21:09 45.13175 -5.36137 50004 ft 442 kts 197°
2026-04-20 21:09 45.07253 -5.38329 49996 ft 442 kts 197°
2026-04-20 21:10 45.01299 -5.40529 49998 ft 442 kts 197°
2026-04-20 21:10 44.95342 -5.42725 49999 ft 442 kts 197°
2026-04-20 21:11 44.89379 -5.44919 49999 ft 442 kts 197°
2026-04-20 21:11 44.83458 -5.47092 49992 ft 441 kts 196°
2026-04-20 21:12 44.77530 -5.49264 49993 ft 441 kts 196°
2026-04-20 21:12 44.72574 -5.51076 49992 ft 441 kts 196°
2026-04-20 21:13 44.66606 -5.53254 49991 ft 441 kts 196°
2026-04-20 21:13 44.60719 -5.55500 49998 ft 439 kts 202°
2026-04-20 21:14 44.55098 -5.58963 50003 ft 438 kts 205°
2026-04-20 21:14 44.49508 -5.62385 50004 ft 439 kts 205°
2026-04-20 21:15 44.43941 -5.65836 49999 ft 439 kts 205°
2026-04-20 21:15 44.38329 -5.69280 49996 ft 439 kts 205°
2026-04-20 21:16 44.32756 -5.72707 49993 ft 439 kts 205°
2026-04-20 21:16 44.27162 -5.76132 49990 ft 439 kts 205°
2026-04-20 21:17 44.21556 -5.79562 49990 ft 439 kts 205°
2026-04-20 21:17 44.15959 -5.82977 49982 ft 440 kts 205°
2026-04-20 21:18 44.10373 -5.86379 49986 ft 440 kts 205°
2026-04-20 21:18 44.04750 -5.89796 49983 ft 440 kts 205°
2026-04-20 21:19 43.99160 -5.93186 49976 ft 440 kts 205°
2026-04-20 21:20 43.90726 -5.98288 49975 ft 440 kts 205°
2026-04-20 21:20 43.85114 -6.01674 49957 ft 441 kts 205°
2026-04-20 21:21 43.79495 -6.05057 49959 ft 441 kts 205°
2026-04-20 21:21 43.73849 -6.08450 49961 ft 441 kts 205°
2026-04-20 21:22 43.68244 -6.11810 49960 ft 441 kts 205°
2026-04-20 21:22 43.62601 -6.15187 49961 ft 441 kts 205°
2026-04-20 21:23 43.56960 -6.18555 49962 ft 441 kts 205°
2026-04-20 21:23 43.51344 -6.21902 49963 ft 441 kts 205°
2026-04-20 21:24 43.45703 -6.25256 49957 ft 440 kts 205°
2026-04-20 21:24 43.40100 -6.28583 49959 ft 440 kts 205°
2026-04-20 21:25 43.34493 -6.31904 49956 ft 439 kts 205°
2026-04-20 21:25 43.28865 -6.35230 49960 ft 439 kts 205°
2026-04-20 21:26 43.23266 -6.38534 49951 ft 438 kts 205°
2026-04-20 21:26 43.17668 -6.41829 49955 ft 438 kts 205°
2026-04-20 21:27 43.12061 -6.45124 49949 ft 438 kts 205°
2026-04-20 21:27 43.06469 -6.48403 49949 ft 437 kts 205°
2026-04-20 21:28 43.00889 -6.51668 49938 ft 437 kts 205°
2026-04-20 21:28 42.95288 -6.54940 49933 ft 437 kts 205°
2026-04-20 21:29 42.89684 -6.58206 49931 ft 437 kts 205°
2026-04-20 21:29 42.84119 -6.61443 49927 ft 436 kts 205°
2026-04-20 21:30 42.78544 -6.64682 49924 ft 436 kts 205°
2026-04-20 21:30 42.72922 -6.67938 49924 ft 436 kts 205°
2026-04-20 21:31 42.67342 -6.71166 49916 ft 436 kts 205°
2026-04-20 21:31 42.61770 -6.74382 49921 ft 436 kts 205°
2026-04-20 21:32 42.56188 -6.77598 49925 ft 436 kts 205°
2026-04-20 21:32 42.50581 -6.80821 49926 ft 436 kts 205°
2026-04-20 21:33 42.45004 -6.84022 49931 ft 435 kts 205°
2026-04-20 21:33 42.39433 -6.87211 49929 ft 435 kts 205°
2026-04-20 21:34 42.33883 -6.90385 49940 ft 434 kts 205°
2026-04-20 21:34 42.28306 -6.93567 49940 ft 433 kts 205°
2026-04-20 21:35 42.22748 -6.96731 49940 ft 433 kts 205°
2026-04-20 21:35 42.17230 -6.99867 49942 ft 432 kts 205°
2026-04-20 21:36 42.11686 -7.03012 49937 ft 431 kts 205°
2026-04-20 21:36 42.06187 -7.06125 49939 ft 431 kts 205°
2026-04-20 21:37 42.00640 -7.09260 49937 ft 430 kts 205°
2026-04-20 21:37 41.95134 -7.12365 49933 ft 429 kts 205°
2026-04-20 21:38 41.89617 -7.15472 49923 ft 429 kts 205°
2026-04-20 21:38 41.84139 -7.18549 49918 ft 428 kts 205°
2026-04-20 21:39 41.78634 -7.21637 49920 ft 428 kts 205°
2026-04-20 21:39 41.73032 -7.24276 49918 ft 430 kts 195°
2026-04-20 21:40 41.67183 -7.26096 49915 ft 430 kts 196°
2026-04-20 21:40 41.61375 -7.27930 49916 ft 430 kts 195°
2026-04-20 21:41 41.55545 -7.29746 49913 ft 430 kts 195°
2026-04-20 21:41 41.49731 -7.31568 49905 ft 430 kts 195°
2026-04-20 21:42 41.43893 -7.33386 49907 ft 430 kts 195°
2026-04-20 21:42 41.38068 -7.35201 49908 ft 430 kts 195°
2026-04-20 21:43 41.32253 -7.37007 49905 ft 430 kts 195°
2026-04-20 21:43 41.26426 -7.38815 49900 ft 430 kts 195°
2026-04-20 21:44 41.20567 -7.40629 49901 ft 431 kts 195°
2026-04-20 21:44 41.14729 -7.42434 49899 ft 431 kts 195°
2026-04-20 21:45 41.08885 -7.44236 49909 ft 431 kts 195°
2026-04-20 21:45 41.03045 -7.46034 49903 ft 432 kts 195°
2026-04-20 21:46 40.97207 -7.47828 49902 ft 432 kts 195°
2026-04-20 21:46 40.91345 -7.49627 49908 ft 432 kts 195°
2026-04-20 21:47 40.85472 -7.51426 49911 ft 432 kts 195°
2026-04-20 21:47 40.79598 -7.53221 49907 ft 433 kts 195°
2026-04-20 21:48 40.73714 -7.55017 49906 ft 433 kts 195°
2026-04-20 21:48 40.67860 -7.56800 49911 ft 433 kts 195°
2026-04-20 21:49 40.61991 -7.58584 49906 ft 433 kts 195°
2026-04-20 21:49 40.56100 -7.60372 49901 ft 433 kts 195°
2026-04-20 21:50 40.50235 -7.62148 49899 ft 433 kts 195°
2026-04-20 21:50 40.44335 -7.63932 49901 ft 433 kts 195°
2026-04-20 21:51 40.38476 -7.65701 49894 ft 434 kts 195°
2026-04-20 21:51 40.32575 -7.67479 49893 ft 434 kts 195°
2026-04-20 21:52 40.26695 -7.69248 49891 ft 434 kts 195°
2026-04-20 21:52 40.20830 -7.71007 49889 ft 434 kts 195°
2026-04-20 21:53 40.14967 -7.72766 49879 ft 433 kts 195°
2026-04-20 21:53 40.10032 -7.74241 49883 ft 433 kts 195°
2026-04-20 21:54 40.04165 -7.75995 49885 ft 433 kts 195°
2026-04-20 21:54 39.98313 -7.77740 49877 ft 433 kts 195°
2026-04-20 21:55 39.92437 -7.79488 49870 ft 433 kts 195°
2026-04-20 21:55 39.86558 -7.81236 49865 ft 433 kts 195°
2026-04-20 21:56 39.80673 -7.82981 49858 ft 433 kts 195°
2026-04-20 21:56 39.74813 -7.84717 49856 ft 433 kts 195°
2026-04-20 21:57 39.68953 -7.86449 49846 ft 433 kts 195°
2026-04-20 21:57 39.63062 -7.88187 49852 ft 434 kts 195°
2026-04-20 21:58 39.57157 -7.89926 49849 ft 434 kts 195°
2026-04-20 21:58 39.51265 -7.91659 49849 ft 434 kts 195°
2026-04-20 21:59 39.45401 -7.93380 49842 ft 434 kts 195°
2026-04-20 21:59 39.39484 -7.95114 49835 ft 434 kts 195°
2026-04-20 22:00 39.33592 -7.96837 49836 ft 434 kts 195°
2026-04-20 22:00 39.27717 -7.98553 49828 ft 435 kts 195°
2026-04-20 22:01 39.21790 -8.00280 49831 ft 435 kts 195°
2026-04-20 22:01 39.15924 -8.02065 49827 ft 433 kts 200°
2026-04-20 22:02 39.10256 -8.04689 49837 ft 432 kts 201°
2026-04-20 22:02 39.04571 -8.07269 49837 ft 432 kts 202°
2026-04-20 22:03 38.98922 -8.09871 49846 ft 432 kts 201°
2026-04-20 22:03 38.93272 -8.12445 49845 ft 431 kts 201°
2026-04-20 22:04 38.87602 -8.15037 49851 ft 431 kts 201°
2026-04-20 22:04 38.81954 -8.17608 49852 ft 431 kts 201°
2026-04-20 22:05 38.76332 -8.20165 49848 ft 431 kts 201°
2026-04-20 22:05 38.70666 -8.22737 49846 ft 430 kts 201°
2026-04-20 22:06 38.65009 -8.25302 49833 ft 430 kts 201°
2026-04-20 22:06 38.59372 -8.27852 49835 ft 430 kts 201°
2026-04-20 22:07 38.53740 -8.30396 49833 ft 430 kts 201°
2026-04-20 22:07 38.48115 -8.32933 49829 ft 429 kts 201°
2026-04-20 22:08 38.42490 -8.35466 49833 ft 429 kts 201°
2026-04-20 22:08 38.36863 -8.37995 49827 ft 429 kts 201°
2026-04-20 22:09 38.31213 -8.40531 49828 ft 429 kts 201°
2026-04-20 22:09 38.25616 -8.43038 49828 ft 428 kts 201°
2026-04-20 22:10 38.19983 -8.45558 49828 ft 428 kts 201°
2026-04-20 22:10 38.14350 -8.48073 49830 ft 429 kts 201°
2026-04-20 22:11 38.08729 -8.50579 49829 ft 429 kts 201°
2026-04-20 22:11 38.03107 -8.53081 49829 ft 429 kts 201°
2026-04-20 22:12 37.97438 -8.55600 49833 ft 430 kts 201°
2026-04-20 22:12 37.91787 -8.58107 49834 ft 430 kts 201°
2026-04-20 22:13 37.86143 -8.60607 49832 ft 431 kts 201°
2026-04-20 22:13 37.80497 -8.63103 49832 ft 432 kts 201°
2026-04-20 22:14 37.74792 -8.65623 49834 ft 432 kts 201°
2026-04-20 22:14 37.69127 -8.68119 49833 ft 432 kts 201°
2026-04-20 22:15 37.63449 -8.70618 49828 ft 433 kts 201°
2026-04-20 22:15 37.57781 -8.73108 49834 ft 433 kts 201°
2026-04-20 22:16 37.52090 -8.75604 49835 ft 433 kts 201°
2026-04-20 22:16 37.46404 -8.78093 49846 ft 433 kts 201°
2026-04-20 22:17 37.40719 -8.80579 49837 ft 433 kts 201°
2026-04-20 22:17 37.35018 -8.83067 49843 ft 432 kts 201°
2026-04-20 22:18 37.29353 -8.85536 49843 ft 432 kts 201°
2026-04-20 22:18 37.23650 -8.88018 49839 ft 432 kts 201°
2026-04-20 22:19 37.17975 -8.90483 49832 ft 432 kts 201°
2026-04-20 22:19 37.12303 -8.92943 49835 ft 432 kts 201°
2026-04-20 22:20 37.06628 -8.95314 49834 ft 432 kts 199°
2026-04-20 22:20 37.00924 -8.97522 49833 ft 432 kts 199°
2026-04-20 22:21 36.95147 -8.99753 49830 ft 432 kts 199°
2026-04-20 22:21 36.89426 -9.01952 49824 ft 432 kts 199°
2026-04-20 22:22 36.83674 -9.04167 49830 ft 432 kts 199°
2026-04-20 22:22 36.77933 -9.06368 49825 ft 431 kts 199°
2026-04-20 22:23 36.72182 -9.08574 49824 ft 431 kts 199°
2026-04-20 22:23 36.66454 -9.10765 49818 ft 431 kts 199°
2026-04-20 22:24 36.60707 -9.12961 49809 ft 431 kts 199°
2026-04-20 22:24 36.54985 -9.15144 49808 ft 431 kts 199°
2026-04-20 22:25 36.49251 -9.17328 49811 ft 431 kts 199°
2026-04-20 22:25 36.43509 -9.19512 49809 ft 431 kts 199°
2026-04-20 22:26 36.37778 -9.21688 49806 ft 431 kts 199°
2026-04-20 22:26 36.32065 -9.23854 49800 ft 431 kts 199°
2026-04-20 22:27 36.23449 -9.27114 49799 ft 430 kts 199°
2026-04-20 22:27 36.17747 -9.29267 49799 ft 430 kts 199°
2026-04-20 22:28 36.12020 -9.31427 49796 ft 430 kts 199°
2026-04-20 22:28 36.06320 -9.33574 49801 ft 429 kts 199°
2026-04-20 22:29 36.00581 -9.35731 49797 ft 429 kts 199°
2026-04-20 22:29 35.95005 -9.38169 49799 ft 426 kts 207°
2026-04-20 22:30 35.89657 -9.41339 49801 ft 426 kts 207°
2026-04-20 22:30 35.84286 -9.44486 49797 ft 426 kts 207°
2026-04-20 22:31 35.78937 -9.47638 49788 ft 426 kts 207°
2026-04-20 22:31 35.73587 -9.50771 49784 ft 426 kts 207°
2026-04-20 22:32 35.68248 -9.53901 49778 ft 426 kts 207°
2026-04-20 22:32 35.62873 -9.57043 49779 ft 426 kts 207°
2026-04-20 22:33 35.57521 -9.60170 49783 ft 426 kts 207°
2026-04-20 22:33 35.52171 -9.63289 49777 ft 426 kts 207°
2026-04-20 22:34 35.46830 -9.66399 49773 ft 427 kts 207°
2026-04-20 22:34 35.42361 -9.68998 49779 ft 427 kts 207°
2026-04-20 22:35 35.36980 -9.72122 49779 ft 427 kts 206°
2026-04-20 22:35 35.31633 -9.75223 49772 ft 427 kts 206°
2026-04-20 22:36 35.26245 -9.78342 49766 ft 427 kts 206°